Location: Arlington
(40.6323°N, 74.1651°W)
Time: 09:05:28
(UTC+00:00)

FengYun 1-2 T - Pass Details

Date: 22 November 2019
Orbit: 846 x 881 km, 98.7° (Epoch: 09 December)

Event Time Altitude Azimuth Distance (km) Brightness Sun altitude
Rises 22:54:27 0° 157° (SSE) 3,411 7.3 -15.1°
Reaches altitude 10° 22:56:49 10° 155° (SSE) 2,475 6.5 -15.6°
Maximum altitude 23:02:16 68° 73° (ENE) 912 4.1 -16.6°
Drops below altitude 10° 23:07:43 10° 352° (N) 2,478 6.6 -17.6°
Sets 23:10:06 0° 350° (N) 3,417 7.4 -18.0°
